New York JFK, NY

8:13 PM EDT on May 22, 2018 (GMT -0400)
Kennedy International

Weather History for KJFK - May, 2014

Change the Weather History Date:

Friday, May 23, 2014

  Actual Average Record
Temperature  
Mean Temperature 63 °F 63 °F  
Max Temperature 69 °F 71 °F 89 °F (1980)
Min Temperature 57 °F 55 °F 44 °F (1963)
Degree Days  
Heating Degree Days 2 4  
Month to date heating degree days 82 145  
Since 1 July heating degree days 5081 4796  
Cooling Degree Days 0 1  
Month to date cooling degree days 13 14  
Year to date cooling degree days 13 17  
Growing Degree Days 13 (Base 50)    
Moisture  
Dew Point 56 °F    
Average Humidity 80    
Maximum Humidity 93    
Minimum Humidity 66    
Precipitation  
Precipitation 0.32 in 0.14 in 1.99 in (1989)
Month to date precipitation 3.52 2.80  
Year to date precipitation 22.36 16.20  
Snow  
Snow 0.00 in 0.00 in - ()
Month to date snowfall 0.0 0.0  
Since 1 July snowfall 45.6 23.8  
Snow Depth 0.00 in    
Sea Level Pressure  
Sea Level Pressure 29.88 in    
Wind  
Wind Speed 7 mph (ENE)    
Max Wind Speed 20 mph    
Max Gust Speed 24 mph    
Visibility 7 miles    
Events Rain , Thunderstorm    
T = Trace of Precipitation, MM = Missing Value Source: NWS Daily Summary

Daily Weather History Graph

Daily Weather History Graph

Search for Another Location

Airport or City:

Astronomy

May. 23, 2014 Rise Set
Actual Time 5:31 AM EDT 8:12 PM EDT
Civil Twilight 4:59 AM EDT 8:44 PM EDT
Nautical Twilight 4:20 AM EDT 9:24 PM EDT
Astronomical Twilight 3:34 AM EDT 10:09 PM EDT
Moon 2:26 AM EDT 3:01 PM EDT
Length of Visible Light 15h 44m
Length of Day
14h 41m
Waning Crescent, 27% of the Moon is Illuminated
May 23
Waning Crescent
May 28
New
Jun 5
First Quarter
Jun 13
Full
Jun 19
Last Quarter

Hourly Weather History & Observations

Time (EDT) Temp. Dew Point Humidity Pressure Visibility Wind Dir Wind Speed Gust Speed Precip Events Conditions
12:49 AM 59.0 °F 55.4 °F 88% 29.85 in 2.0 mi East 6.9 mph - N/A   Overcast
12:51 AM 59.0 °F 55.9 °F 90% 29.85 in 2.0 mi East 5.8 mph - N/A   Overcast
1:39 AM 59.0 °F 57.2 °F 94% 29.85 in 1.0 mi East 5.8 mph - N/A   Overcast
1:51 AM 59.0 °F 57.0 °F 93% 29.86 in 1.0 mi ENE 3.5 mph - N/A   Overcast
2:43 AM 59.0 °F 55.4 °F 88% 29.86 in 2.0 mi ENE 4.6 mph - N/A   Overcast
2:51 AM 57.9 °F 55.9 °F 93% 29.86 in 2.0 mi ENE 4.6 mph - N/A   Overcast
3:51 AM 57.9 °F 55.9 °F 93% 29.86 in 2.0 mi NNE 4.6 mph - N/A   Overcast
4:18 AM 59.0 °F 55.4 °F 88% 29.86 in 2.0 mi NE 4.6 mph - N/A   Overcast
4:51 AM 59.0 °F 55.9 °F 90% 29.86 in 6.0 mi NE 5.8 mph - N/A   Overcast
5:06 AM 59.0 °F 55.4 °F 88% 29.85 in 6.0 mi NNE 6.9 mph - N/A   Overcast
5:51 AM 59.0 °F 55.9 °F 90% 29.85 in 5.0 mi NNE 5.8 mph - N/A   Overcast
6:51 AM 60.1 °F 57.0 °F 90% 29.86 in 7.0 mi North 4.6 mph - N/A   Overcast
7:26 AM 60.8 °F 57.2 °F 88% 29.87 in 7.0 mi NNE 3.5 mph - N/A   Overcast
7:51 AM 61.0 °F 57.0 °F 87% 29.88 in 8.0 mi Calm Calm - N/A   Overcast
8:31 AM 60.8 °F 57.2 °F 88% 29.89 in 8.0 mi Calm Calm - N/A   Overcast
8:51 AM 62.1 °F 57.0 °F 84% 29.90 in 10.0 mi Calm Calm - N/A   Overcast
9:51 AM 63.0 °F 55.9 °F 78% 29.90 in 10.0 mi Calm Calm - N/A   Overcast
10:51 AM 64.0 °F 55.9 °F 75% 29.90 in 10.0 mi NNE 8.1 mph - N/A   Overcast
11:24 AM 64.4 °F 55.4 °F 73% 29.90 in 10.0 mi North 5.8 mph - N/A   Overcast
11:51 AM 66.0 °F 55.9 °F 70% 29.90 in 10.0 mi NE 6.9 mph - N/A   Mostly Cloudy
12:51 PM 66.0 °F 55.0 °F 68% 29.89 in 10.0 mi NNE 8.1 mph - N/A   Mostly Cloudy
1:51 PM 66.0 °F 55.0 °F 68% 29.88 in 10.0 mi NE 9.2 mph - N/A   Mostly Cloudy
2:51 PM 69.1 °F 57.0 °F 65% 29.88 in 10.0 mi East 6.9 mph - N/A   Mostly Cloudy
3:51 PM 68.0 °F 57.9 °F 70% 29.87 in 10.0 mi SE 10.4 mph - N/A   Mostly Cloudy
4:36 PM 64.4 °F 57.2 °F 77% 29.88 in 10.0 mi SE 11.5 mph - N/A   Overcast
4:51 PM 64.0 °F 57.0 °F 78% 29.88 in 10.0 mi SSE 6.9 mph - N/A   Overcast
5:12 PM 62.6 °F 57.2 °F 82% 29.88 in 10.0 mi SSE 4.6 mph - 0.00 in Rain Light Rain
5:51 PM 63.0 °F 57.0 °F 81% 29.87 in 10.0 mi East 5.8 mph - 0.00 in   Mostly Cloudy
6:51 PM 64.0 °F 57.0 °F 78% 29.88 in 10.0 mi ESE 6.9 mph - N/A   Mostly Cloudy
7:51 PM 61.0 °F 55.0 °F 81% 29.90 in 10.0 mi ESE 4.6 mph - N/A   Mostly Cloudy
8:03 PM 60.8 °F 55.4 °F 82% 29.91 in 10.0 mi ESE 5.8 mph - N/A Thunderstorm Thunderstorm
8:51 PM 60.1 °F 55.0 °F 83% 29.93 in 10.0 mi South 4.6 mph - 0.02 in Rain , Thunderstorm Light Thunderstorms and Rain
9:38 PM 57.2 °F 53.6 °F 88% 29.94 in 5.0 mi WSW 5.8 mph - 0.08 in Rain Heavy Rain
9:51 PM 57.0 °F 53.1 °F 87% 29.94 in 5.0 mi West 4.6 mph - 0.14 in Rain Rain
10:51 PM 57.9 °F 53.1 °F 84% 29.93 in 8.0 mi NNW 15.0 mph 24.2 mph 0.13 in Rain Light Rain
11:51 PM 57.9 °F 54.0 °F 87% 29.93 in 8.0 mi NW 16.1 mph - 0.02 in Rain Light Rain